TimeMST,TemperatureF,Dew PointF,Humidity,Sea Level PressureIn,VisibilityMPH,Wind Direction,Wind SpeedMPH,Gust SpeedMPH,PrecipitationIn,Events,Conditions,WindDirDegrees,DateUTC
12:03 AM,17.6,10.4,73,30.20,10.0,South,12.7,-,N/A,,Scattered Clouds,170,2013-02-15 07:03:00
12:18 AM,17.6,10.4,73,30.20,10.0,SSE,9.2,-,N/A,,Mostly Cloudy,150,2013-02-15 07:18:00
12:28 AM,17.6,10.4,73,30.20,10.0,SE,9.2,-,N/A,,Mostly Cloudy,140,2013-02-15 07:28:00
12:43 AM,17.6,10.4,73,30.20,10.0,SE,6.9,-,N/A,,Scattered Clouds,140,2013-02-15 07:43:00
12:58 AM,16.7,10.0,75,30.35,10.0,SE,5.8,-,N/A,,Partly Cloudy,130,2013-02-15 07:58:00
1:58 AM,16.2,9.9,76,30.35,10.0,ESE,3.5,-,N/A,,Clear,110,2013-02-15 08:58:00
2:58 AM,9.3,5.4,84,30.39,10.0,North,4.6,-,N/A,,Clear,360,2013-02-15 09:58:00
3:58 AM,6.8,2.5,82,30.41,10.0,North,9.2,-,N/A,,Clear,360,2013-02-15 10:58:00
4:58 AM,7.0,2.5,82,30.41,10.0,North,8.1,-,N/A,,Clear,360,2013-02-15 11:58:00
5:58 AM,9.5,5.0,82,30.42,10.0,NNE,9.2,-,N/A,,Clear,20,2013-02-15 12:58:00
6:58 AM,10.0,5.0,80,30.43,10.0,North,8.1,-,N/A,,Clear,360,2013-02-15 13:58:00
7:58 AM,14.4,8.8,79,30.42,10.0,NNW,2.3,-,N/A,,Clear,340,2013-02-15 14:58:00
8:58 AM,19.2,12.9,76,30.43,10.0,North,4.6,-,N/A,,Clear,350,2013-02-15 15:58:00
9:58 AM,28.8,10.6,47,30.36,10.0,NNE,13.8,-,N/A,,Clear,30,2013-02-15 16:58:00
10:58 AM,31.5,10.8,42,30.34,10.0,North,12.7,-,N/A,,Clear,350,2013-02-15 17:58:00
11:58 AM,34.2,11.7,39,30.31,10.0,NNW,12.7,-,N/A,,Clear,340,2013-02-15 18:58:00
12:58 PM,37.9,3.9,24,30.29,10.0,NW,9.2,27.6,N/A,,Partly Cloudy,320,2013-02-15 19:58:00
1:07 PM,35.6,3.2,26,30.18,10.0,NNW,15.0,20.7,N/A,,Partly Cloudy,340,2013-02-15 20:07:00
1:08 PM,35.6,3.2,26,30.17,10.0,NNE,15.0,20.7,N/A,,Partly Cloudy,20,2013-02-15 20:08:00
1:58 PM,34.7,6.3,30,30.32,10.0,North,17.3,-,N/A,,Clear,350,2013-02-15 20:58:00
2:27 PM,35.6,8.6,33,30.18,10.0,North,26.5,31.1,N/A,,Clear,10,2013-02-15 21:27:00
2:58 PM,34.3,7.5,33,30.38,10.0,NNE,19.6,26.5,N/A,,Clear,20,2013-02-15 21:58:00
3:58 PM,31.6,12.2,45,30.41,10.0,North,13.8,-,N/A,,Clear,350,2013-02-15 22:58:00
4:58 PM,29.5,10.6,45,30.43,10.0,North,17.3,-,N/A,,Clear,10,2013-02-15 23:58:00
5:58 PM,24.6,14.0,64,30.44,10.0,North,10.4,-,N/A,,Clear,10,2013-02-16 00:58:00
6:58 PM,21.0,13.6,73,30.47,10.0,North,6.9,-,N/A,,Clear,350,2013-02-16 01:58:00
7:58 PM,18.3,13.1,80,30.47,10.0,North,8.1,-,N/A,,Clear,350,2013-02-16 02:58:00
8:58 PM,18.0,12.7,80,30.45,10.0,Variable,3.5,-,N/A,,Clear,0,2013-02-16 03:58:00
9:58 PM,18.3,12.9,79,30.40,10.0,SSE,6.9,-,N/A,,Clear,150,2013-02-16 04:58:00
10:58 PM,18.9,14.2,82,30.39,10.0,ESE,2.3,-,N/A,,Clear,110,2013-02-16 05:58:00
11:58 PM,13.3,9.1,84,30.38,10.0,North,6.9,-,N/A,,Clear,350,2013-02-16 06:58:00